DAL404 KATL-KLGA

Flight info

Callsign DAL404
Flight time 1h 48m
Altitude 37000
Route JACCC2 KELLN BYJAC Q60 HURTS PROUD2
Aircraft A321/M-VGDW/C

Departure

Time 2026-05-04 10:37
Airport Hartsfield Jackson Atlanta International Airport (KATL)

Arrival

Time 2026-05-04 12:25
Airport LaGuardia Airport (KLGA)
Time Latitude Longitude Altitude Speed Heading
2026-05-04 10:19 33.63842 -84.43868 1006 ft 0 kts 270°
2026-05-04 10:25 33.63843 -84.43794 1006 ft 0 kts 268°
2026-05-04 10:27 33.63832 -84.43803 1006 ft 2 kts 189°
2026-05-04 10:27 33.63798 -84.43790 1006 ft 6 kts 170°
2026-05-04 10:28 33.63779 -84.43788 1006 ft 0 kts 178°
2026-05-04 10:28 33.63754 -84.43787 1006 ft 10 kts 178°
2026-05-04 10:29 33.63670 -84.43748 1006 ft 15 kts 116°
2026-05-04 10:29 33.63664 -84.43625 1006 ft 14 kts 89°
2026-05-04 10:29 33.63664 -84.43505 1006 ft 15 kts 90°
2026-05-04 10:29 33.63664 -84.43376 1006 ft 15 kts 90°
2026-05-04 10:30 33.63664 -84.43256 1006 ft 14 kts 90°
2026-05-04 10:30 33.63664 -84.43148 1006 ft 12 kts 90°
2026-05-04 10:30 33.63665 -84.43050 1006 ft 11 kts 90°
2026-05-04 10:30 33.63665 -84.42963 1006 ft 10 kts 90°
2026-05-04 10:31 33.63665 -84.42880 1006 ft 12 kts 90°
2026-05-04 10:31 33.63662 -84.42755 1006 ft 19 kts 97°
2026-05-04 10:32 33.63654 -84.41858 1006 ft 22 kts 90°
2026-05-04 10:33 33.63655 -84.41680 1006 ft 21 kts 90°
2026-05-04 10:33 33.63654 -84.41509 1006 ft 20 kts 90°
2026-05-04 10:33 33.63657 -84.41344 1006 ft 19 kts 88°
2026-05-04 10:33 33.63658 -84.41187 1006 ft 18 kts 91°
2026-05-04 10:34 33.63655 -84.41041 1006 ft 17 kts 90°
2026-05-04 10:34 33.63655 -84.40900 1006 ft 16 kts 90°
2026-05-04 10:34 33.63647 -84.40773 1007 ft 14 kts 123°
2026-05-04 10:34 33.63591 -84.40742 1007 ft 2 kts 166°
2026-05-04 10:35 33.63590 -84.40742 1007 ft 0 kts 167°
2026-05-04 10:35 33.63549 -84.40734 1007 ft 11 kts 178°
2026-05-04 10:36 33.63487 -84.40766 1007 ft 9 kts 237°
2026-05-04 10:36 33.63472 -84.40835 1007 ft 8 kts 268°
2026-05-04 10:36 33.63471 -84.40892 1007 ft 7 kts 269°
2026-05-04 10:36 33.63472 -84.41049 1006 ft 44 kts 270°
2026-05-04 10:37 33.63471 -84.41773 1006 ft 126 kts 270°
2026-05-04 10:37 33.63475 -84.43095 1026 ft 185 kts 270°
2026-05-04 10:37 33.63507 -84.44660 1791 ft 185 kts 272°
2026-05-04 10:37 33.63553 -84.46174 2754 ft 179 kts 267°
2026-05-04 10:39 33.60319 -84.53972 5378 ft 196 kts 231°
2026-05-04 10:39 33.59346 -84.55205 5518 ft 210 kts 227°
2026-05-04 10:39 33.58395 -84.56584 5633 ft 221 kts 237°
2026-05-04 10:40 33.57532 -84.58209 5777 ft 240 kts 238°
2026-05-04 10:40 33.56348 -84.59624 6170 ft 249 kts 213°
2026-05-04 10:40 33.54768 -84.60591 6514 ft 264 kts 200°
2026-05-04 10:40 33.52906 -84.60808 7031 ft 278 kts 173°
2026-05-04 10:41 33.51011 -84.60221 7665 ft 284 kts 165°
2026-05-04 10:41 33.49160 -84.59345 8306 ft 290 kts 154°
2026-05-04 10:41 33.47386 -84.58157 8950 ft 294 kts 151°
2026-05-04 10:41 33.45769 -84.56646 9550 ft 299 kts 131°
2026-05-04 10:42 33.44775 -84.54463 10150 ft 303 kts 101°
2026-05-04 10:42 33.44607 -84.51882 10364 ft 322 kts 86°
2026-05-04 10:42 33.44843 -84.49170 10493 ft 342 kts 81°
2026-05-04 10:42 33.45194 -84.46264 10619 ft 362 kts 81°
2026-05-04 10:43 33.45490 -84.43201 10953 ft 374 kts 84°
2026-05-04 10:44 33.50703 -84.22157 14916 ft 396 kts 59°
2026-05-04 10:45 33.52004 -84.19280 15392 ft 400 kts 59°
2026-05-04 10:45 33.53335 -84.16322 15874 ft 404 kts 59°
2026-05-04 10:45 33.54675 -84.13325 16350 ft 408 kts 59°
2026-05-04 10:45 33.56022 -84.10302 16802 ft 412 kts 59°
2026-05-04 10:46 33.57378 -84.07253 17239 ft 417 kts 59°
2026-05-04 10:46 33.58748 -84.04172 17677 ft 420 kts 59°
2026-05-04 10:46 33.60117 -84.01093 18095 ft 424 kts 59°
2026-05-04 10:46 33.61529 -83.97912 18534 ft 428 kts 59°
2026-05-04 10:47 33.62915 -83.94787 18948 ft 431 kts 59°
2026-05-04 10:47 33.64328 -83.91598 19374 ft 434 kts 59°
2026-05-04 10:47 33.65754 -83.88376 19788 ft 437 kts 59°
2026-05-04 10:47 33.67189 -83.85135 20195 ft 440 kts 59°
2026-05-04 10:49 33.77352 -83.62296 22845 ft 458 kts 56°
2026-05-04 10:49 33.79042 -83.59013 23200 ft 460 kts 53°
2026-05-04 10:50 33.80805 -83.55797 23546 ft 462 kts 52°
2026-05-04 10:51 33.93336 -83.32737 25834 ft 479 kts 53°
2026-05-04 10:52 33.95126 -83.29341 26118 ft 481 kts 53°
2026-05-04 10:52 33.96933 -83.25936 26399 ft 483 kts 53°
2026-05-04 10:52 33.98751 -83.22523 26679 ft 485 kts 53°
2026-05-04 10:54 34.11588 -82.98279 28742 ft 493 kts 53°
2026-05-04 10:54 34.13424 -82.94789 29083 ft 492 kts 53°
2026-05-04 10:56 34.26142 -82.70386 31359 ft 487 kts 52°
2026-05-04 10:56 34.27923 -82.66959 31682 ft 486 kts 52°
2026-05-04 10:56 34.29721 -82.63493 31993 ft 485 kts 52°
2026-05-04 10:57 34.31518 -82.60025 32311 ft 485 kts 52°
2026-05-04 10:57 34.33313 -82.56565 32617 ft 484 kts 52°
2026-05-04 10:57 34.35097 -82.53122 32915 ft 483 kts 52°
2026-05-04 10:57 34.36865 -82.49705 33219 ft 482 kts 52°
2026-05-04 10:58 34.38642 -82.46262 33516 ft 482 kts 51°
2026-05-04 10:58 34.40420 -82.42819 33805 ft 481 kts 51°
2026-05-04 10:58 34.42196 -82.39374 34100 ft 480 kts 51°
2026-05-04 10:58 34.43964 -82.35940 34374 ft 480 kts 51°
2026-05-04 10:59 34.45710 -82.32471 34619 ft 481 kts 53°
2026-05-04 10:59 34.47380 -82.28945 34848 ft 483 kts 54°
2026-05-04 10:59 34.48972 -82.25414 35074 ft 484 kts 56°
2026-05-04 10:59 34.50564 -82.21798 35313 ft 484 kts 56°
2026-05-04 11:00 34.52191 -82.18225 35518 ft 481 kts 51°
2026-05-04 11:01 34.67215 -81.97054 36784 ft 474 kts 42°
2026-05-04 11:02 34.69393 -81.94043 36986 ft 474 kts 42°
2026-05-04 11:02 34.71570 -81.91037 37108 ft 472 kts 42°
2026-05-04 11:05 35.01838 -81.48971 37124 ft 473 kts 43°
2026-05-04 11:06 35.06143 -81.42959 37119 ft 473 kts 43°
2026-05-04 11:06 35.10469 -81.36891 37115 ft 474 kts 43°
2026-05-04 11:10 35.40817 -80.94040 37098 ft 478 kts 44°
2026-05-04 11:12 35.57475 -80.70294 37114 ft 481 kts 44°
2026-05-04 11:12 35.61833 -80.64050 37112 ft 481 kts 44°
2026-05-04 11:13 35.66201 -80.57787 37110 ft 482 kts 45°
2026-05-04 11:13 35.70546 -80.51544 37106 ft 483 kts 45°
2026-05-04 11:14 35.74925 -80.45244 37101 ft 484 kts 45°
2026-05-04 11:16 35.92420 -80.19940 37116 ft 486 kts 45°
2026-05-04 11:16 35.96647 -80.13409 37117 ft 490 kts 54°
2026-05-04 11:17 36.00323 -80.06369 37114 ft 491 kts 53°
2026-05-04 11:19 36.15445 -79.78303 37104 ft 490 kts 50°
2026-05-04 11:19 36.19437 -79.71454 37098 ft 490 kts 51°
2026-05-04 11:20 36.23391 -79.64544 37098 ft 491 kts 51°
2026-05-04 11:20 36.27295 -79.57589 37097 ft 491 kts 52°
2026-05-04 11:22 36.42964 -79.29716 37111 ft 494 kts 52°
2026-05-04 11:23 36.46891 -79.22696 37106 ft 495 kts 52°
2026-05-04 11:25 36.60623 -78.98040 37105 ft 497 kts 52°
2026-05-04 11:25 36.64514 -78.90964 37106 ft 498 kts 53°
2026-05-04 11:27 36.80218 -78.57174 37101 ft 504 kts 60°
2026-05-04 11:28 36.83450 -78.49460 37102 ft 504 kts 60°
2026-05-04 11:28 36.86690 -78.41682 37106 ft 504 kts 61°
2026-05-04 11:29 36.89912 -78.33923 37108 ft 504 kts 61°
2026-05-04 11:29 36.93143 -78.26138 37101 ft 504 kts 61°
2026-05-04 11:33 37.15613 -77.71440 37071 ft 509 kts 62°
2026-05-04 11:33 37.18844 -77.63516 37077 ft 510 kts 62°
2026-05-04 11:34 37.22061 -77.55570 37084 ft 510 kts 62°
2026-05-04 11:34 37.25250 -77.47669 37090 ft 510 kts 62°
2026-05-04 11:35 37.28458 -77.39716 37099 ft 511 kts 62°
2026-05-04 11:35 37.31667 -77.31745 37084 ft 511 kts 62°
2026-05-04 11:36 37.34876 -77.23751 37084 ft 512 kts 62°
2026-05-04 11:36 37.38075 -77.15791 37078 ft 512 kts 62°
2026-05-04 11:37 37.41280 -77.07779 37077 ft 513 kts 62°
2026-05-04 11:37 37.44773 -76.99982 37075 ft 510 kts 51°
2026-05-04 11:38 37.49681 -76.93662 37074 ft 500 kts 32°
2026-05-04 11:38 37.55550 -76.89251 37072 ft 493 kts 21°
2026-05-04 11:39 37.61530 -76.85296 37075 ft 494 kts 21°
2026-05-04 11:41 37.82842 -76.71042 37082 ft 496 kts 21°
2026-05-04 11:41 37.88948 -76.66952 37084 ft 496 kts 21°
2026-05-04 11:42 37.95113 -76.63012 37085 ft 496 kts 20°
2026-05-04 11:42 38.01314 -76.59154 37080 ft 496 kts 19°
2026-05-04 11:43 38.07477 -76.55281 37093 ft 496 kts 20°
2026-05-04 11:43 38.13651 -76.51353 37090 ft 496 kts 20°
2026-05-04 11:44 38.19816 -76.47398 37086 ft 496 kts 20°
2026-05-04 11:44 38.25978 -76.43451 37085 ft 496 kts 20°
2026-05-04 11:45 38.31864 -76.38833 37077 ft 505 kts 32°
2026-05-04 11:45 38.37453 -76.33370 37074 ft 505 kts 32°
2026-05-04 11:46 38.43002 -76.27947 37075 ft 505 kts 32°
2026-05-04 11:46 38.48585 -76.22467 37075 ft 505 kts 32°
2026-05-04 11:47 38.54135 -76.17008 36783 ft 498 kts 32°
2026-05-04 11:47 38.56874 -76.14313 36279 ft 495 kts 32°
2026-05-04 11:47 38.59564 -76.11659 35784 ft 493 kts 33°
2026-05-04 11:47 38.62265 -76.08972 35284 ft 491 kts 33°
2026-05-04 11:48 38.64966 -76.06283 34781 ft 492 kts 33°
2026-05-04 11:48 38.67488 -76.03774 34319 ft 494 kts 33°
2026-05-04 11:48 38.70282 -76.00969 33802 ft 496 kts 34°
2026-05-04 11:48 38.73012 -75.98273 33305 ft 496 kts 32°
2026-05-04 11:49 38.75768 -75.95605 32806 ft 497 kts 31°
2026-05-04 11:49 38.78522 -75.92931 32308 ft 497 kts 32°
2026-05-04 11:49 38.81281 -75.90260 31808 ft 495 kts 30°
2026-05-04 11:49 38.84116 -75.87778 31307 ft 491 kts 27°
2026-05-04 11:50 38.86955 -75.85352 30808 ft 490 kts 27°
2026-05-04 11:50 38.89786 -75.82921 30307 ft 488 kts 27°
2026-05-04 11:50 38.92595 -75.80504 29807 ft 486 kts 27°
2026-05-04 11:50 38.95368 -75.78118 29313 ft 485 kts 28°
2026-05-04 11:51 38.98132 -75.75630 28813 ft 484 kts 30°
2026-05-04 11:51 39.00828 -75.73062 28311 ft 480 kts 31°
2026-05-04 11:51 39.03475 -75.70463 27847 ft 476 kts 32°
2026-05-04 11:51 39.06079 -75.67886 27421 ft 469 kts 32°
2026-05-04 11:52 39.08657 -75.65359 26995 ft 463 kts 31°
2026-05-04 11:52 39.11226 -75.62881 26568 ft 457 kts 31°
2026-05-04 11:52 39.13768 -75.60462 26142 ft 451 kts 30°
2026-05-04 11:52 39.16256 -75.58112 25721 ft 445 kts 30°
2026-05-04 11:53 39.18749 -75.55762 25295 ft 441 kts 30°
2026-05-04 11:53 39.21219 -75.53431 24870 ft 436 kts 30°
2026-05-04 11:53 39.23656 -75.51126 24448 ft 432 kts 30°
2026-05-04 11:53 39.26084 -75.48892 24018 ft 426 kts 29°
2026-05-04 11:55 39.42744 -75.34240 22074 ft 408 kts 29°
2026-05-04 11:55 39.45078 -75.32155 22072 ft 408 kts 29°
2026-05-04 11:56 39.47417 -75.30061 22038 ft 409 kts 29°
2026-05-04 11:56 39.49752 -75.27968 21602 ft 407 kts 29°
2026-05-04 11:56 39.52068 -75.25881 21150 ft 403 kts 30°
2026-05-04 11:56 39.54321 -75.23799 20704 ft 401 kts 30°
2026-05-04 11:57 39.56577 -75.21673 20251 ft 398 kts 31°
2026-05-04 11:57 39.58806 -75.19558 19799 ft 395 kts 31°
2026-05-04 11:57 39.61013 -75.17464 19346 ft 392 kts 31°
2026-05-04 11:57 39.63216 -75.15378 18871 ft 390 kts 31°
2026-05-04 11:58 39.65372 -75.13343 18403 ft 387 kts 31°
2026-05-04 11:58 39.67552 -75.11295 17919 ft 385 kts 31°
2026-05-04 11:58 39.69744 -75.09305 17445 ft 382 kts 29°
2026-05-04 11:58 39.71943 -75.07400 16968 ft 379 kts 28°
2026-05-04 11:59 39.74162 -75.05523 16493 ft 378 kts 28°
2026-05-04 11:59 39.76366 -75.03670 16016 ft 376 kts 28°
2026-05-04 11:59 39.78558 -75.01819 15529 ft 375 kts 28°
2026-05-04 11:59 39.80706 -74.99987 15074 ft 373 kts 30°
2026-05-04 12:00 39.82795 -74.98194 14597 ft 366 kts 30°
2026-05-04 12:00 39.84862 -74.96407 14195 ft 358 kts 30°
2026-05-04 12:00 39.86917 -74.94599 13813 ft 355 kts 31°
2026-05-04 12:00 39.88940 -74.92769 13433 ft 352 kts 32°
2026-05-04 12:01 39.90940 -74.90940 13064 ft 351 kts 33°
2026-05-04 12:01 39.92816 -74.88905 12684 ft 351 kts 43°
2026-05-04 12:02 40.02565 -74.74951 10586 ft 341 kts 45°
2026-05-04 12:03 40.03643 -74.73407 10343 ft 338 kts 45°
2026-05-04 12:03 40.05216 -74.71150 10073 ft 332 kts 45°
2026-05-04 12:03 40.06717 -74.68991 10034 ft 317 kts 45°
2026-05-04 12:03 40.08172 -74.66897 10040 ft 307 kts 45°
2026-05-04 12:04 40.09612 -74.64824 10047 ft 307 kts 45°
2026-05-04 12:04 40.11047 -74.62756 10044 ft 307 kts 45°
2026-05-04 12:04 40.12483 -74.60693 10043 ft 308 kts 45°
2026-05-04 12:04 40.13927 -74.58617 10045 ft 308 kts 45°
2026-05-04 12:05 40.15364 -74.56545 10045 ft 307 kts 45°
2026-05-04 12:05 40.16792 -74.54479 10046 ft 306 kts 45°
2026-05-04 12:05 40.18221 -74.52413 10049 ft 305 kts 45°
2026-05-04 12:05 40.19632 -74.50376 10049 ft 306 kts 45°
2026-05-04 12:06 40.21082 -74.48342 10041 ft 305 kts 43°
2026-05-04 12:06 40.22591 -74.46389 10037 ft 305 kts 41°
2026-05-04 12:06 40.24128 -74.44471 10036 ft 305 kts 40°
2026-05-04 12:06 40.25670 -74.42564 10037 ft 304 kts 40°
2026-05-04 12:07 40.27209 -74.40656 10037 ft 305 kts 40°
2026-05-04 12:07 40.28745 -74.38744 10036 ft 305 kts 41°
2026-05-04 12:07 40.30280 -74.36824 10036 ft 305 kts 41°
2026-05-04 12:07 40.31807 -74.34904 10041 ft 305 kts 41°
2026-05-04 12:08 40.33335 -74.32976 10042 ft 304 kts 41°
2026-05-04 12:08 40.34860 -74.31047 10038 ft 305 kts 41°
2026-05-04 12:08 40.36370 -74.29132 9981 ft 298 kts 41°
2026-05-04 12:08 40.37843 -74.27261 9857 ft 293 kts 41°
2026-05-04 12:09 40.39283 -74.25431 9747 ft 292 kts 41°
2026-05-04 12:09 40.40742 -74.23573 9607 ft 292 kts 41°
2026-05-04 12:09 40.42199 -74.21722 9483 ft 291 kts 41°
2026-05-04 12:09 40.43650 -74.19878 9357 ft 290 kts 41°
2026-05-04 12:10 40.45096 -74.18037 9236 ft 289 kts 41°
2026-05-04 12:10 40.46536 -74.16203 9113 ft 288 kts 41°
2026-05-04 12:10 40.47973 -74.14364 8984 ft 287 kts 41°
2026-05-04 12:10 40.49408 -74.12529 8867 ft 287 kts 41°
2026-05-04 12:11 40.50826 -74.10721 8759 ft 287 kts 40°
2026-05-04 12:11 40.52328 -74.09008 8630 ft 284 kts 31°
2026-05-04 12:11 40.54014 -74.07684 8504 ft 280 kts 21°
2026-05-04 12:11 40.55801 -74.06680 8390 ft 278 kts 18°
2026-05-04 12:12 40.57632 -74.05892 8279 ft 275 kts
2026-05-04 12:12 40.59477 -74.05339 8147 ft 270 kts
2026-05-04 12:12 40.61310 -74.04815 8022 ft 269 kts
2026-05-04 12:12 40.63142 -74.04292 7909 ft 268 kts
2026-05-04 12:13 40.64968 -74.03770 7797 ft 268 kts
2026-05-04 12:14 40.77543 -74.00082 6722 ft 261 kts 13°
2026-05-04 12:15 40.79249 -73.99250 6539 ft 261 kts 17°
2026-05-04 12:15 40.80924 -73.98303 6332 ft 262 kts 21°
2026-05-04 12:15 40.82536 -73.97236 6133 ft 264 kts 22°
2026-05-04 12:15 40.84185 -73.96127 5935 ft 267 kts 22°
2026-05-04 12:16 40.85846 -73.95018 5735 ft 267 kts 22°
2026-05-04 12:16 40.87505 -73.93912 5539 ft 266 kts 22°
2026-05-04 12:16 40.89164 -73.92801 5338 ft 266 kts 22°
2026-05-04 12:16 40.90781 -73.91716 5141 ft 260 kts 22°
2026-05-04 12:17 40.92380 -73.90637 4945 ft 256 kts 22°
2026-05-04 12:17 40.93962 -73.89572 4747 ft 253 kts 22°
2026-05-04 12:17 40.95516 -73.88516 4544 ft 251 kts 23°
2026-05-04 12:17 40.97055 -73.87468 4336 ft 246 kts 24°
2026-05-04 12:18 40.98464 -73.86194 4100 ft 249 kts 41°
2026-05-04 12:18 40.99647 -73.84508 3840 ft 249 kts 47°
2026-05-04 12:18 41.00781 -73.82770 3583 ft 248 kts 47°
2026-05-04 12:18 41.01716 -73.80864 3343 ft 247 kts 73°
2026-05-04 12:19 41.01814 -73.78710 3341 ft 217 kts 111°
2026-05-04 12:19 41.01263 -73.76814 3395 ft 228 kts 119°
2026-05-04 12:19 41.00469 -73.75024 3200 ft 221 kts 142°
2026-05-04 12:19 40.99283 -73.73832 3040 ft 212 kts 156°
2026-05-04 12:20 40.98017 -73.72932 2987 ft 204 kts 170°
2026-05-04 12:20 40.96653 -73.72693 2997 ft 194 kts 191°
2026-05-04 12:20 40.95374 -73.73134 3003 ft 187 kts 212°
2026-05-04 12:20 40.94275 -73.74017 3017 ft 185 kts 216°
2026-05-04 12:21 40.93186 -73.74924 3023 ft 184 kts 216°
2026-05-04 12:21 40.92132 -73.75799 2999 ft 173 kts 217°
2026-05-04 12:21 40.91132 -73.76629 2877 ft 167 kts 217°
2026-05-04 12:21 40.90166 -73.77433 2692 ft 165 kts 216°
2026-05-04 12:22 40.89198 -73.78236 2478 ft 164 kts 216°
2026-05-04 12:22 40.88246 -73.79026 2283 ft 158 kts 215°
2026-05-04 12:22 40.87320 -73.79796 2056 ft 156 kts 214°
2026-05-04 12:22 40.86396 -73.80562 1847 ft 156 kts 214°
2026-05-04 12:23 40.85481 -73.81320 1633 ft 151 kts 214°
2026-05-04 12:23 40.84613 -73.82040 1453 ft 148 kts 214°
2026-05-04 12:23 40.83747 -73.82758 1251 ft 147 kts 213°
2026-05-04 12:23 40.82881 -73.83476 1053 ft 146 kts 213°
2026-05-04 12:24 40.82023 -73.84192 860 ft 146 kts 213°
2026-05-04 12:24 40.81163 -73.84911 697 ft 147 kts 212°
2026-05-04 12:24 40.80293 -73.85621 519 ft 147 kts 212°
2026-05-04 12:24 40.79431 -73.86328 282 ft 145 kts 215°
2026-05-04 12:25 40.78566 -73.87044 54 ft 146 kts 213°
2026-05-04 12:25 40.77771 -73.87706 23 ft 108 kts 211°
2026-05-04 12:25 40.77432 -73.87981 22 ft 33 kts 205°
2026-05-04 12:25 40.77309 -73.87998 20 ft 10 kts 159°
2026-05-04 12:26 40.77335 -73.87921 20 ft 16 kts 36°
2026-05-04 12:26 40.77437 -73.87835 23 ft 16 kts 32°
2026-05-04 12:26 40.77528 -73.87758 21 ft 15 kts 32°
2026-05-04 12:26 40.77610 -73.87691 22 ft 13 kts 32°
2026-05-04 12:27 40.77684 -73.87631 22 ft 12 kts 31°
2026-05-04 12:27 40.77738 -73.87565 19 ft 10 kts 86°
2026-05-04 12:27 40.77743 -73.87471 17 ft 11 kts 69°
2026-05-04 12:27 40.77771 -73.87375 15 ft 12 kts 70°
2026-05-04 12:28 40.77771 -73.87273 15 ft 11 kts 99°
2026-05-04 12:28 40.77735 -73.87182 15 ft 15 kts 125°
2026-05-04 12:28 40.77665 -73.87045 15 ft 19 kts 122°
2026-05-04 12:28 40.77598 -73.86900 13 ft 18 kts 123°
2026-05-04 12:29 40.77528 -73.86773 13 ft 17 kts 128°
2026-05-04 12:29 40.77463 -73.86643 12 ft 17 kts 121°
2026-05-04 12:29 40.77402 -73.86519 13 ft 16 kts 123°
2026-05-04 12:29 40.77346 -73.86401 13 ft 15 kts 122°
2026-05-04 12:30 40.77293 -73.86289 14 ft 14 kts 122°
2026-05-04 12:30 40.77243 -73.86180 13 ft 13 kts 118°
2026-05-04 12:30 40.77198 -73.86091 12 ft 7 kts 129°
2026-05-04 12:30 40.77167 -73.86072 14 ft 4 kts 161°
2026-05-04 12:31 40.77137 -73.86076 18 ft 5 kts 208°
2026-05-04 12:31 40.77119 -73.86135 19 ft 11 kts 284°
2026-05-04 12:31 40.77135 -73.86161 19 ft 2 kts 316°
2026-05-04 12:31 40.77152 -73.86182 19 ft 3 kts 313°
2026-05-04 12:32 40.77159 -73.86192 19 ft 0 kts 313°
2026-05-04 12:32 40.77158 -73.86192 19 ft 0 kts 313°
2026-05-04 12:52 40.77158 -73.86191 20 ft 0 kts 314°